PASH Airport (Shishmaref) Information

FAA: SHH - ICAO: PASH

PASH Airport Location

State Alaska
County Nome
City Shishmaref
PASH Airport is 1 miles south of Shishmaref, AK.
Latitude 66-14-58.5000N
Longitude 166-05-21.7000W
Elevation 13ft

PASH Airport METARs

METAR PASH 251556Z AUTO 27025KT 5SM UP BR BKN009 OVC014 M01/M02 A2917 RMK AO2 PK WND 27031/1532 UPB03SNE03B18E28 CIG 006V011 SLP879 T10061017 FZRANO PNO $
Altimeter 29.17"
Temperature -0.6°C (30.9°F)
Wind 270° at 25KT
Clouds broken at 900ft overcast at 1,400ft
Visibility 5.0mi
Time observed: 2021-10-25T15:56:00Z

PASH Airport Details

Status Operational
Activation February 1988
Ownership Public
Usage Public
Chart NOME
ATC on-site No
Beacon schedule sunset-sunrise
Beacon color clear green

PASH Airport Contacts

Owner ALASKA DOT&PF NORTHERN REGION
Owner address 2301 PEGER RD, FAIRBANKS, AK 99709
Owner phone 907-451-2200
Manager ANNIE N. ROACH
Manager address PO BOX 149, QUINHAGAK, AK 99655
Manager phone 907-556-8165

PASH Airport (Shishmaref) Radio Frequencies

PASH (Airport) Radio Frequencies

UNICOM N/A
Common traffic advisory frequency (CTAF) 123